SCP
0 -0 -0 -0 0 -0 -0 -0 -0 -0 -0 -0 -0 0 0 -0 0 -0 -0 -0 -0 0 0 -0 -0 0 0 0 0 0 0 0
-0 -0 -0 -0 0 0 0 -0 -0 -0 -0 -0 0 0 0 0 0 0 -0 -0 0 0 -0 -0 -0 0 0 0 0 0 0 -0
-0 0 0 -0 0 0 0 0 0 -0 -0 0 0 0 0 0 -0 0 0 -0 -0 -0 -0 0 -0 0 0 0 -0 0 -0 -0
-1 -0 0 0 0 0 0 0 0 0 0 0 0 0 0 0 -0 -0 -0 -0 -0 -0 -0 0 0 0 0 0 -0 -0 -0 -0
-0 -0 0 0 0 0 0 0 0 0 0 0 0 0 0 -0 -0 -0 -0 -0 0 -0 -0 -0 0 0 -0 -0 -0 -0 -0 -0
-0 -0 -0 0 0 0 0 0 0 0 0 0 0 0 0 -0 -0 0 -0 0 0 -0 -0 -0 -0 0 -0 -0 -0 -0 -0 0
-0 -0 -0 -0 0 0 0 0 0 0 0 0 0 0 -0 -0 0 -0 0 0 0 -0 0 -0 0 0 0 -0 -0 0 0 0
0 0 -0 -0 0 0 0 0 0 0 0 0 0 0 -0 -0 0 0 0 0 0 -0 0 0 0 -0 -0 -0 0 -0 -0 0
0 0 0 0 0 0 0 0 0 0 0 0 0 0 0 -0 0 0 0 0 0 0 -0 0 -0 0 0 0 0 0 0 0
0 0 0 0 0 -0 0 0 0 0 0 0 0 0 0 0 0 0 -0 0 0 0 -0 0 0 0 0 0 -0 0 0 0
0 0 0 0 -0 -0 0 0 0 0 0 0 0 0 0 0 1 0 0 -0 0 0 0 0 0 0 0 0 0 0 0 0
1 0 0 0 -0 0 0 1 0 0 0 0 0 0 0 0 0 0 0 0 0 0 0 0 0 -0 0 1 0 0 1 1
1 1 1 0 0 1 1 1 1 0 -0 0 0 1 1 0 0 1 0 0 0 1 1 0 0 0 1 1 0 1 2 1
2 2 2 1 0 1 1 1 1 0 0 0 1 1 1 1 0 1 0 0 1 1 1 1 0 1 1 0 1 2 2 2
2 1 1 2 1 2 1 1 1 1 1 1 1 1 2 1 1 1 1 -0 2 1 1 1 2 1 1 0 1 1 1 2
2 1 1 1 3 3 2 1 1 1 1 2 1 1 2 2 1 1 0 0 1 2 2 4 2 2 1 1 0 1 0 1
1 2 1 2 2 2 3 3 1 2 1 1 1 1 2 2 2 1 1 1 1 2 4 4 2 3 3 1 1 0 0 0
1 2 1 2 1 1 1 2 2 1 1 1 1 1 3 4 4 3 2 1 2 3 3 3 3 3 3 2 2 1 0 0
0 0 0 0 0 0 0 0 1 1 1 1 2 2 5 4 6 5 4 4 2 3 3 3 3 3 2 3 2 2 2 0
Wind_Speed_500mb
40 39 47 44 44 43 43 42 39 33 29 34 36 34 34 31 29 27 25 25 26 27 27 28 27 26 29 35 40 43 36 28
40 38 46 43 43 41 40 42 39 33 31 36 35 34 32 31 28 27 26 26 28 27 27 26 23 21 23 28 29 30 25 30
46 35 45 45 43 42 39 41 40 36 35 37 34 33 30 30 26 26 26 26 28 28 25 22 19 16 18 23 23 18 31 23
38 34 47 46 44 41 40 40 40 38 40 40 34 31 29 28 25 23 23 24 26 25 24 20 17 13 14 17 22 22 20 17
36 34 43 47 47 45 43 42 41 41 44 41 34 30 27 25 23 20 19 21 24 24 22 19 15 13 11 11 15 21 29 29
38 33 37 38 43 40 42 44 45 45 45 41 35 31 27 23 21 19 18 19 21 21 19 16 15 13 12 14 15 17 22 30
40 39 40 40 40 41 36 44 47 48 46 41 36 32 27 16 10 8 12 17 20 19 18 17 16 16 18 17 15 22 27 29
42 48 45 47 43 45 41 39 46 48 45 39 33 31 28 22 22 22 26 21 19 20 18 18 18 24 20 15 15 17 19 13
47 48 47 49 47 49 50 35 43 37 39 37 34 29 33 33 36 22 20 10 18 18 15 9 19 17 23 24 31 32 22 1
46 49 46 51 49 55 55 44 42 45 37 32 30 30 38 27 28 24 37 26 10 16 19 26 17 27 8 7 13 9 10 20
38 47 42 50 49 53 47 47 41 48 49 44 44 39 36 35 36 28 29 36 31 32 18 34 30 35 14 13 12 20 2 18
25 35 43 42 50 54 45 43 45 50 54 49 53 48 49 47 42 38 34 33 31 30 40 24 25 7 25 12 20 6 6 3
29 32 43 40 46 56 55 56 48 50 50 53 54 55 58 51 50 38 43 40 37 31 27 26 26 34 23 26 13 16 25 21
35 39 40 48 46 51 64 53 57 57 47 56 56 48 56 57 55 56 49 45 38 37 34 41 22 26 25 25 29 26 26 31
27 36 45 45 52 43 55 61 58 60 59 53 53 61 53 58 56 56 47 53 36 46 39 37 34 26 28 34 32 26 28 32
14 31 41 50 49 50 51 60 66 67 61 57 69 54 62 63 59 57 61 55 52 41 52 42 40 41 31 32 37 31 30 33
9 12 28 44 45 60 53 51 71 69 73 65 58 71 61 55 61 57 62 63 63 51 51 59 42 54 55 38 39 33 25 31
14 3 21 38 39 45 62 54 57 70 70 69 63 64 68 69 60 62 58 65 63 48 64 63 63 53 51 56 48 44 14 20
11 4 2 16 30 37 44 56 54 57 66 67 54 59 50 62 69 70 64 57 60 59 56 49 59 64 64 54 55 59 46 30
Wind_Direction_500mb
146 165 159 160 165 168 169 166 167 165 162 159 154 150 145 143 143 141 140 143 141 133 124 118 112 106 100 105 116 120 116 103
148 176 163 164 166 168 171 170 170 171 167 163 159 154 148 144 143 140 141 144 145 140 133 127 122 116 111 107 122 122 118 113
163 178 170 166 167 168 171 171 174 174 172 169 167 159 154 150 147 143 142 145 149 147 144 141 134 127 119 113 121 128 114 109
167 176 173 168 167 168 173 174 177 179 175 172 174 166 161 159 155 151 147 151 154 157 156 154 148 143 133 120 121 128 130 131
159 162 169 173 171 171 174 178 180 182 178 177 178 173 171 170 166 160 157 158 162 165 167 167 166 165 160 142 141 139 158 165
165 167 167 170 174 169 174 178 180 184 181 180 183 182 179 181 177 175 177 166 176 179 180 181 181 181 179 163 148 164 182 157
175 171 174 175 178 167 173 182 182 184 184 184 188 187 183 168 196 202 196 190 187 191 194 194 188 182 180 178 163 198 202 167
182 177 177 182 179 173 179 189 184 187 189 190 190 192 187 171 212 212 236 240 208 204 206 198 191 201 195 186 230 226 277 285
180 183 179 183 179 180 185 202 185 194 190 195 193 198 184 191 211 197 235 272 222 214 207 219 205 201 226 248 227 213 248 249
181 180 183 184 185 185 192 199 189 193 198 197 200 208 187 185 209 223 205 235 229 205 200 210 227 231 240 272 278 316 28 357
188 179 186 183 188 186 190 194 191 192 203 203 203 213 212 202 207 220 220 222 228 215 232 208 235 224 201 210 239 207 15 346
180 180 187 186 195 187 201 194 198 200 202 201 210 214 222 207 208 213 209 215 222 207 234 218 234 206 204 235 279 150 182 173
193 197 191 195 207 200 198 210 203 205 209 209 207 215 218 221 216 222 209 214 222 219 235 225 234 215 213 220 295 149 197 212
199 207 205 202 209 215 206 210 206 212 216 214 214 215 222 228 234 213 216 205 225 220 224 225 223 208 218 220 257 220 219 227
191 213 215 208 213 224 211 208 213 212 221 216 222 221 226 232 232 223 212 210 219 221 215 223 225 226 230 228 227 225 219 232
233 216 217 223 217 224 221 217 211 222 218 223 219 224 223 231 230 222 223 212 211 221 218 216 225 225 223 220 218 223 230 233
210 239 228 226 232 228 224 223 221 220 224 220 228 222 226 226 232 231 225 222 211 223 217 217 223 224 223 226 232 232 231 242
170 234 240 227 232 237 234 232 239 238 234 232 236 230 228 228 226 231 227 228 215 223 230 225 226 219 217 223 232 235 209 230
171 231 236 231 224 236 240 232 239 240 238 238 246 240 227 222 225 230 227 226 226 227 216 218 228 234 226 226 224 237 233 236
Wind_Speed_850mb
40 39 47 44 44 43 43 42 39 33 29 34 36 34 34 31 29 27 25 25 26 27 27 28 27 26 29 35 40 43 36 28
40 38 46 43 43 41 40 42 39 33 31 36 35 34 32 31 28 27 26 26 28 27 27 26 23 21 23 28 29 30 25 30
46 35 45 45 43 42 39 41 40 36 35 37 34 33 30 30 26 26 26 26 28 28 25 22 19 16 18 23 23 18 31 23
38 34 47 46 44 41 40 40 40 38 40 40 34 31 29 28 25 23 23 24 26 25 24 20 17 13 14 17 22 22 20 17
36 34 43 47 47 45 43 42 41 41 44 41 34 30 27 25 23 20 19 21 24 24 22 19 15 13 11 11 15 21 29 29
38 33 37 38 43 40 42 44 45 45 45 41 35 31 27 23 21 19 18 19 21 21 19 16 15 13 12 14 15 17 22 30
40 39 40 40 40 41 36 44 47 48 46 41 36 32 27 16 10 8 12 17 20 19 18 17 16 16 18 17 15 22 27 29
42 48 45 47 43 45 41 39 46 48 45 39 33 31 28 22 22 22 26 21 19 20 18 18 18 24 20 15 15 17 19 13
47 48 47 49 47 49 50 35 43 37 39 37 34 29 33 33 36 22 20 10 18 18 15 9 19 17 23 24 31 32 22 1
46 49 46 51 49 55 55 44 42 45 37 32 30 30 38 27 28 24 37 26 10 16 19 26 17 27 8 7 13 9 10 20
38 47 42 50 49 53 47 47 41 48 49 44 44 39 36 35 36 28 29 36 31 32 18 34 30 35 14 13 12 20 2 18
25 35 43 42 50 54 45 43 45 50 54 49 53 48 49 47 42 38 34 33 31 30 40 24 25 7 25 12 20 6 6 3
29 32 43 40 46 56 55 56 48 50 50 53 54 55 58 51 50 38 43 40 37 31 27 26 26 34 23 26 13 16 25 21
35 39 40 48 46 51 64 53 57 57 47 56 56 48 56 57 55 56 49 45 38 37 34 41 22 26 25 25 29 26 26 31
27 36 45 45 52 43 55 61 58 60 59 53 53 61 53 58 56 56 47 53 36 46 39 37 34 26 28 34 32 26 28 32
14 31 41 50 49 50 51 60 66 67 61 57 69 54 62 63 59 57 61 55 52 41 52 42 40 41 31 32 37 31 30 33
9 12 28 44 45 60 53 51 71 69 73 65 58 71 61 55 61 57 62 63 63 51 51 59 42 54 55 38 39 33 25 31
14 3 21 38 39 45 62 54 57 70 70 69 63 64 68 69 60 62 58 65 63 48 64 63 63 53 51 56 48 44 14 20
11 4 2 16 30 37 44 56 54 57 66 67 54 59 50 62 69 70 64 57 60 59 56 49 59 64 64 54 55 59 46 30
Wind_Direction_850mb
146 165 159 160 165 168 169 166 167 165 162 159 154 150 145 143 143 141 140 143 141 133 124 118 112 106 100 105 116 120 116 103
148 176 163 164 166 168 171 170 170 171 167 163 159 154 148 144 143 140 141 144 145 140 133 127 122 116 111 107 122 122 118 113
163 178 170 166 167 168 171 171 174 174 172 169 167 159 154 150 147 143 142 145 149 147 144 141 134 127 119 113 121 128 114 109
167 176 173 168 167 168 173 174 177 179 175 172 174 166 161 159 155 151 147 151 154 157 156 154 148 143 133 120 121 128 130 131
159 162 169 173 171 171 174 178 180 182 178 177 178 173 171 170 166 160 157 158 162 165 167 167 166 165 160 142 141 139 158 165
165 167 167 170 174 169 174 178 180 184 181 180 183 182 179 181 177 175 177 166 176 179 180 181 181 181 179 163 148 164 182 157
175 171 174 175 178 167 173 182 182 184 184 184 188 187 183 168 196 202 196 190 187 191 194 194 188 182 180 178 163 198 202 167
182 177 177 182 179 173 179 189 184 187 189 190 190 192 187 171 212 212 236 240 208 204 206 198 191 201 195 186 230 226 277 285
180 183 179 183 179 180 185 202 185 194 190 195 193 198 184 191 211 197 235 272 222 214 207 219 205 201 226 248 227 213 248 249
181 180 183 184 185 185 192 199 189 193 198 197 200 208 187 185 209 223 205 235 229 205 200 210 227 231 240 272 278 316 28 357
188 179 186 183 188 186 190 194 191 192 203 203 203 213 212 202 207 220 220 222 228 215 232 208 235 224 201 210 239 207 15 346
180 180 187 186 195 187 201 194 198 200 202 201 210 214 222 207 208 213 209 215 222 207 234 218 234 206 204 235 279 150 182 173
193 197 191 195 207 200 198 210 203 205 209 209 207 215 218 221 216 222 209 214 222 219 235 225 234 215 213 220 295 149 197 212
199 207 205 202 209 215 206 210 206 212 216 214 214 215 222 228 234 213 216 205 225 220 224 225 223 208 218 220 257 220 219 227
191 213 215 208 213 224 211 208 213 212 221 216 222 221 226 232 232 223 212 210 219 221 215 223 225 226 230 228 227 225 219 232
233 216 217 223 217 224 221 217 211 222 218 223 219 224 223 231 230 222 223 212 211 221 218 216 225 225 223 220 218 223 230 233
210 239 228 226 232 228 224 223 221 220 224 220 228 222 226 226 232 231 225 222 211 223 217 217 223 224 223 226 232 232 231 242
170 234 240 227 232 237 234 232 239 238 234 232 236 230 228 228 226 231 227 228 215 223 230 225 226 219 217 223 232 235 209 230
171 231 236 231 224 236 240 232 239 240 238 238 246 240 227 222 225 230 227 226 226 227 216 218 228 234 226 226 224 237 233 236